Tracking 19709 objects as of 17-Jun-2019
HD Live streaming from Space Station
objects crossing your sky now

JIKIKEN (EXOS-B)


JIKIKEN (EXOS-B) is no longer on orbit
JIKIKEN (EXOS-B) is classified as:


NORAD ID: 11027
Int'l Code: 1978-087A
Perigee: N/A
Apogee: N/A
Inclination: N/A
Period: N/A
Semi major axis: N/A
RCS: N/A
Launch date: September 16, 1978
Source: Japan (JPN)
Launch site: KAGOSHIMA SPACE CENTER UNIVERSITY OF TOKYO (KSCUT)
Decay date: 2018-04-23
aabbcc
Your satellite tracking list
Your tracking list is empty




NASA's NSSDC Master Catalog

Two Line Element Set (TLE):
1 11027U 78087A   18112.46053103  .30876732 -28323-5  36693-3 0  9996
2 11027  30.9775 144.4309 0104397   6.3627 354.6589 16.33048659477448
Source of the keplerian elements: AFSPC